INSAT-3DS

Last updated on Tue Sep 16 2025 00:02:23 GMT+0000 (Coordinated Universal Time)

1 58990U 24033A 25258.60086935 -.00000173 00000+0 00000+0 0 9992 2 58990 0.0352 270.0722 0001442 284.7562 98.3763 1.00271643 44310
UTC large
Height (km)
Speed (km/s)
/
Latitude / Longitude
Inclination (degrees)
Orbital Period (minutes)
Azimuth
Elevation
Range (km)
Doppler Factor

Next 0 passes for location: London (51.5072 / 0.1276)

Sorry there are no passes over London.